« Back
NWS Peachtree City, Ga » Text Product » GA Regional Weather Roundup


Printer-friendly Version
Current Version              Previous Versions:   1  2  3  4  5  6  7  8  9  

Regional Weather Roundup

643
ASUS42 KFFC 291603
RWRGA
WEATHER ROUNDUP FOR GEORGIA
NATIONAL WEATHER SERVICE PEACHTREE CITY GA
1200 PM EDT FRI MAY 29 2015

NOTE: "FAIR" INDICATES FEW OR NO CLOUDS BELOW 12,000 FEET WITH NO
SIGNIFICANT WEATHER AND/OR OBSTRUCTIONS TO VISIBILITY.

* = USE WITH CAUTION. THE STATIONS MARKED WITH AN ASTERISK MAY NOT
REPORT WEATHER SUCH AS PRECIPITATION, FOG, OR THUNDER AND ARE NOT
QUALITY CONTROLLED BY NWS.

THE REMARK "TC" DENOTES TEMPERATURE READING IN DEGREES CELSIUS.

GAZ001>058-291700-
NORTH GEORGIA

CITY           SKY/WX    TMP DP  RH WIND       PRES   REMARKS
ATLANTA        PTSUNNY   78  64  61 SE6       30.25R
ATHENS         MOSUNNY   78  63  59 CALM      30.25S
CHAMBLEE       PTSUNNY   77  66  68 VRB5      30.25S
PEACHTREE CITY MOSUNNY   79  65  62 E6        30.24S
ROME           PTSUNNY   78  68  71 VRB5      30.22S
WEST ATLANTA   SUNNY     77  63  61 VRB5      30.24S
GAINESVILLE    PTSUNNY   74  65  73 E5        30.29S
CARTERSVILLE   MOSUNNY   79  66  64 SE6       30.23S


CITY           SKY/WX    TMP DP  RH WIND       PRES   REMARKS
DALTON*        PTSUNNY   79  66  65 S7        30.23S
LAWRENCEVILLE* PTSUNNY   79  63  57 NE6       30.24S
BLAIRSVILLE*     N/A     76  50  40 SE5       30.29R
$$

GAZ059>098-102>109-291700-
CENTRAL GEORGIA

CITY           SKY/WX    TMP DP  RH WIND       PRES   REMARKS
AUGUSTA-BUSH   SUNNY     81  62  52 VRB5      30.22F
AUGUSTA-DANIEL SUNNY     82  57  42 E9        30.24F
COLUMBUS       SUNNY     80  63  55 VRB6      30.20S
MACON          MOSUNNY   82  63  52 SE5       30.22S
ROBINS AFB     SUNNY     81  63  55 VRB3      30.21F


CITY           SKY/WX    TMP DP  RH WIND       PRES   REMARKS
LAGRANGE*      SUNNY     83  71  66 SE6       30.22S
SYLVANIA*      MOSUNNY   83  65  54 E7        30.24S
MILLEDGEVILLE* SUNNY     81  68  65 CALM      30.23S
$$

GAZ099>101-110>166-291700-
SOUTH GEORGIA

CITY           SKY/WX    TMP DP  RH WIND       PRES   REMARKS
SAVANNAH       PTSUNNY   83  63  50 E12       30.21S
VALDOSTA       PTSUNNY   81  61  50 VRB3      30.19S
ALMA           MOSUNNY   81  62  52 VRB5      30.20R
FT STEWART     PTSUNNY   83  61  47 VRB3      30.19S HAZE
ALBANY         PTSUNNY   82  60  47 VRB7      30.21F
HUNTER AFB     MOSUNNY   83  65  54 E8        30.19S
MOODY AFB      PTSUNNY   82  62  49 N7        30.18S
BRUNSWICK        N/A     81  63  54 NE15      30.20S


CITY           SKY/WX    TMP DP  RH WIND       PRES   REMARKS
BAINBRIDGE*    MOSUNNY   84  66  54 CALM      30.19F
MOULTRIE*      MOSUNNY   81  63  54 CALM      30.21R
VIDALIA*       MOSUNNY   81  61  50 E9        30.22S
WAYCROSS*      PTSUNNY   82  64  54 E10       30.19S
DOUGLAS*       PTSUNNY   82  61  47 E7        30.22R
$$



USA.gov is the U.S. government's official web portal to all federal, state and local government web resources and services.